Temperature
23 20 21 21 22 23 23 24 24 24 24 24 23 22 22 21 22 21 21 21 21 22 22 22 21 21 21 21 21 20 20 20 20 19 19 19 19 19 19 18 18 18 18 18
20 21 22 22 22 23 24 24 24 23 24 24 23 22 22 21 21 22 22 22 22 22 22 22 22 21 21 21 21 21 21 20 20 20 19 19 19 19 19 19 18 18 18 18
21 22 22 23 23 23 23 23 24 24 23 23 23 22 22 22 22 22 22 22 22 23 23 23 22 22 22 21 21 21 21 20 20 20 19 19 19 19 19 19 19 19 18 18
21 22 22 23 23 23 23 23 24 24 23 21 23 22 22 21 21 21 22 23 23 23 23 23 23 22 22 22 22 21 21 21 20 20 19 19 19 19 19 19 19 19 18 18
21 22 23 23 23 23 23 24 23 23 22 21 21 22 21 21 21 21 22 23 23 23 24 24 24 23 23 22 22 21 21 21 20 20 20 19 19 19 19 19 19 19 19 18
21 22 23 23 23 23 23 22 20 18 19 21 21 21 21 20 21 22 22 23 23 24 24 24 24 23 23 22 22 22 21 21 20 20 20 20 20 19 19 19 19 19 19 18
22 23 23 24 23 23 22 20 20 21 19 20 20 21 20 21 21 22 22 23 24 24 24 24 24 23 23 22 22 22 22 21 21 20 20 20 19 19 19 19 19 19 19 19
20 20 22 23 23 22 21 20 20 21 20 20 20 20 21 22 22 23 23 23 24 24 24 24 24 24 23 23 22 22 22 21 21 20 20 20 19 19 19 19 19 19 19 19
19 20 22 23 23 21 21 20 19 18 19 20 20 20 21 22 21 21 22 22 23 24 24 24 24 24 23 23 23 22 22 21 21 21 20 20 20 19 19 19 19 18 18 18
19 21 22 23 23 21 20 18 17 18 19 20 21 21 21 22 22 21 20 21 23 24 24 24 24 24 23 23 23 22 22 21 21 21 20 20 20 19 19 19 19 18 18 18
20 20 21 22 23 21 20 19 17 16 18 19 21 21 21 21 21 20 20 21 22 23 23 23 23 23 23 22 22 22 22 21 21 20 20 20 19 19 19 19 18 18 18 18
18 17 19 21 21 22 21 19 18 19 18 17 19 20 21 20 20 20 21 21 22 23 23 23 23 22 22 22 22 22 21 21 20 20 20 19 19 19 19 19 18 18 18 18
18 17 18 20 21 21 21 19 18 17 15 16 19 21 21 19 20 21 21 21 22 22 23 23 22 22 22 22 22 21 21 21 20 20 19 19 19 19 18 18 18 18 18 18
18 16 18 19 20 20 21 20 18 18 17 17 19 21 21 20 19 20 20 21 21 22 22 22 22 22 22 21 21 21 21 20 20 19 19 19 19 18 18 18 18 18 17 17
18 18 18 19 20 21 22 21 20 20 19 19 20 20 21 20 19 20 20 20 20 21 21 22 22 21 21 21 21 20 20 20 20 19 19 19 18 18 18 18 18 17 17 17
16 18 19 21 21 22 22 21 21 21 20 20 21 20 20 20 20 20 20 20 20 20 21 21 21 21 21 21 20 20 20 19 19 19 19 18 18 18 18 17 17 17 16 16
15 16 17 19 21 22 21 21 21 21 20 20 21 21 19 19 19 19 19 20 20 20 21 21 21 21 20 20 20 20 19 19 19 19 18 18 18 17 17 17 16 16 16 16
14 14 14 17 20 21 20 20 20 20 20 19 20 19 19 19 20 20 20 20 20 21 21 21 20 20 20 20 19 19 19 19 18 18 18 17 17 17 17 16 16 15 15 15
14 15 14 15 18 20 20 20 19 20 20 19 19 18 18 18 19 19 20 20 21 21 21 20 20 20 19 19 19 19 19 18 18 18 17 17 17 17 16 16 15 15 15 15
13 13 14 15 18 19 20 20 19 20 20 19 18 17 17 18 18 18 19 20 20 20 20 20 19 19 19 19 18 18 18 18 18 17 17 17 16 16 16 16 15 15 15 14
15 14 14 16 18 18 18 18 19 20 20 19 18 18 18 18 19 20 19 19 20 20 20 19 19 19 18 18 18 18 18 17 17 17 16 16 16 16 15 15 15 14 14 14
14 14 14 14 17 18 17 18 18 18 18 18 18 18 18 18 19 19 19 19 19 19 19 18 18 18 18 17 17 17 17 17 16 16 16 15 15 15 15 14 14 14 14 14
13 14 13 14 15 15 15 16 17 17 17 18 18 18 19 18 18 18 18 18 18 18 18 18 18 17 17 17 17 17 16 16 16 15 15 15 14 14 14 14 14 14 13 13
13 12 13 14 15 15 16 16 17 18 18 18 18 19 19 19 18 18 18 17 18 18 18 17 17 17 17 16 16 16 16 15 15 15 15 14 14 14 13 13 13 13 13 13
13 13 13 14 14 15 16 17 17 18 18 18 18 19 19 19 18 17 17 17 17 17 17 17 17 17 17 16 16 15 15 15 15 14 14 14 13 13 13 13 12 12 12 12
12 13 13 14 14 14 15 17 17 18 18 18 18 18 18 18 17 17 17 17 17 17 16 16 16 16 16 15 15 14 14 14 14 14 14 13 13 13 12 12 12 11 11 11
Wind_Speed
4 5 4 6 7 6 6 5 2 3 2 3 4 4 5 8 8 9 9 9 9 10 7 7 8 8 8 8 8 8 8 7 6 4 3 3 2 2 2 4 5 6 6 6
5 2 5 5 6 5 5 4 1 1 1 2 2 3 3 7 10 9 10 10 10 8 6 8 8 9 9 10 10 9 9 8 7 5 4 3 3 2 2 2 4 5 6 6
7 4 4 6 5 5 3 5 4 3 3 4 3 4 2 4 5 6 7 8 9 11 10 9 9 9 9 10 11 11 10 8 8 6 4 3 2 1 1 1 2 3 6 7
4 4 4 5 5 7 4 5 5 4 3 1 2 2 6 4 5 8 9 9 11 11 10 9 10 10 11 11 10 9 9 8 7 7 6 5 4 4 4 2 2 2 4 5
6 4 5 6 7 8 6 3 4 4 5 2 2 2 7 1 6 11 12 12 12 11 12 12 13 12 11 10 9 8 8 8 7 7 7 6 5 4 2 2 2 3 2 3
5 3 5 7 4 7 6 7 8 7 5 1 3 4 6 5 9 8 9 11 12 11 11 11 10 9 8 8 8 8 8 7 7 7 7 7 7 6 4 4 4 3 2 2
2 3 3 4 5 3 6 7 4 4 3 5 3 3 9 8 8 10 10 10 10 10 10 10 10 10 10 10 9 8 8 7 6 7 7 7 7 6 6 5 5 4 3 3
6 5 6 6 7 8 7 10 9 7 6 4 1 5 8 6 6 6 6 6 7 8 9 10 11 11 11 10 9 8 9 8 7 7 7 6 6 5 4 4 4 4 4 4
8 6 4 5 5 11 8 5 8 8 4 1 4 7 9 4 3 2 2 4 7 8 9 9 9 10 10 10 10 10 9 7 7 7 6 5 5 5 4 4 4 3 3 3
9 4 3 2 6 4 7 10 7 7 7 3 4 4 5 6 4 3 2 4 6 6 6 7 8 9 8 8 8 8 8 8 7 6 5 5 4 4 4 3 3 2 2 2
5 4 2 2 6 9 6 6 6 6 6 7 3 7 7 8 6 5 4 4 5 6 6 6 6 7 7 7 6 6 6 6 5 5 5 5 4 3 3 3 3 2 1 1
6 5 2 5 4 5 7 9 9 7 4 5 5 7 5 5 5 4 3 3 4 5 6 6 7 7 7 7 6 6 6 6 5 5 4 4 3 3 3 3 2 2 2 1
8 6 3 3 3 2 5 5 6 8 7 6 6 7 3 0 1 2 3 4 4 6 7 6 6 6 6 5 5 5 5 5 5 5 4 3 3 3 3 2 2 2 2 1
7 5 7 9 8 6 6 5 6 8 6 6 8 7 4 3 3 3 4 4 5 6 7 7 6 5 5 5 4 4 3 4 5 5 5 4 3 3 2 2 2 2 2 2
6 6 5 5 4 4 5 7 8 7 9 9 9 9 9 8 6 5 6 7 7 7 7 7 6 5 6 6 4 4 4 4 5 5 5 3 3 4 3 3 3 3 3 3
4 6 5 2 2 4 3 4 7 6 6 6 5 7 6 3 4 6 7 8 8 7 7 7 7 6 6 7 5 5 5 4 5 6 5 5 5 5 4 4 4 5 5 5
4 7 5 3 1 4 1 3 5 5 5 8 8 9 5 6 8 9 9 9 8 8 8 8 7 6 6 6 6 6 6 6 7 7 6 6 6 6 5 5 6 6 5 6
7 7 5 4 4 4 6 2 3 5 3 4 5 5 8 7 5 4 6 8 8 8 8 8 7 7 6 6 7 7 8 8 8 7 6 6 6 6 6 6 6 6 6 6
5 8 5 5 4 2 2 1 2 4 1 2 4 4 7 10 8 3 3 6 7 8 8 7 7 7 8 8 8 9 8 8 8 7 6 6 7 8 8 7 6 6 6 7
6 6 6 5 6 6 6 2 1 4 2 2 4 8 9 9 6 5 6 7 8 8 8 8 8 9 9 7 8 10 9 8 7 6 6 7 7 8 8 8 7 6 7 7
5 6 5 5 3 5 4 4 1 5 6 3 5 8 9 6 5 6 9 9 9 9 9 9 9 8 7 7 9 10 9 7 6 7 8 8 8 8 8 7 7 7 7 7
5 5 4 5 3 5 4 1 4 5 2 2 5 6 6 7 9 10 10 10 10 10 10 9 9 8 6 7 10 10 8 7 7 9 9 8 8 7 7 8 7 7 7 8
2 4 5 6 5 4 3 3 2 1 1 2 4 6 10 10 10 10 10 10 10 10 9 9 10 9 6 6 8 10 7 8 9 10 9 8 8 8 7 7 7 6 6 6
1 2 3 2 1 2 2 2 2 2 2 2 6 8 10 11 10 10 11 10 10 9 9 9 10 9 7 6 7 8 8 8 10 10 8 8 8 8 8 6 6 6 5 6
1 2 3 1 1 2 3 3 3 5 6 7 7 7 9 12 10 10 10 10 9 8 8 8 9 9 8 7 7 7 7 9 10 9 8 8 8 8 8 8 7 6 5 4
2 3 4 4 5 3 2 2 2 6 6 7 8 7 7 8 9 10 9 8 9 8 8 8 8 8 8 8 7 6 6 8 10 9 7 6 6 6 7 8 8 12 10 12
Wind_Direction
59 88 173 191 172 158 146 137 162 235 230 155 200 229 206 181 187 196 194 196 204 215 206 191 186 182 176 181 185 186 186 184 167 158 164 168 194 205 213 211 213 210 199 193
59 230 207 153 140 127 134 133 164 315 341 160 201 263 226 196 204 202 199 201 205 207 198 193 186 185 185 190 189 191 194 188 181 180 169 166 163 185 200 213 211 209 199 197
166 220 171 146 143 144 163 172 181 179 38 48 93 342 268 227 214 218 213 206 205 206 203 196 192 193 190 194 194 197 197 191 189 179 150 126 101 80 142 205 218 218 203 202
200 230 158 150 174 153 213 208 173 153 110 335 90 260 277 244 237 229 224 213 211 208 198 194 194 196 199 200 195 194 189 189 188 176 177 178 187 204 215 206 211 226 210 206
215 189 164 182 198 166 191 148 128 118 124 74 36 146 284 281 246 244 230 220 214 204 197 197 200 200 201 196 190 189 184 189 187 184 187 188 202 208 204 194 211 233 233 222
221 224 191 195 182 165 139 79 60 53 76 80 233 168 272 232 225 240 231 217 210 204 200 200 197 189 187 186 183 182 184 193 187 185 188 193 200 199 199 209 217 234 239 236
246 252 225 171 121 105 112 99 56 26 33 242 257 192 248 248 235 231 234 221 206 198 196 193 184 187 186 185 187 185 184 194 192 191 196 200 201 197 205 211 215 222 229 237
171 244 218 186 170 162 164 140 154 174 198 255 277 229 254 261 263 254 236 214 193 191 193 191 186 186 186 184 182 185 190 195 192 195 201 198 195 197 207 208 209 217 224 233
171 232 267 210 172 137 136 161 153 129 142 121 274 286 302 293 309 304 237 185 189 189 186 184 176 176 176 176 181 184 188 191 190 193 191 187 190 190 195 200 203 217 228 237
155 201 267 214 102 52 140 142 111 122 141 193 280 278 259 276 276 285 247 201 194 180 171 163 163 170 173 174 176 175 178 187 186 179 184 187 186 192 190 190 197 204 218 231
142 159 303 112 167 164 115 105 110 116 143 150 200 263 231 230 233 231 237 208 185 167 156 154 155 158 153 153 161 169 177 176 176 179 173 172 179 175 174 184 195 203 203 204
147 128 219 255 258 178 149 156 146 148 179 162 162 257 273 234 235 214 204 176 160 147 139 138 141 140 143 151 161 170 175 176 175 167 162 166 163 157 165 175 179 172 175 191
143 125 99 359 360 106 125 140 142 124 119 146 161 252 306 315 155 154 151 146 137 127 121 121 131 140 142 146 153 159 164 165 154 143 141 140 145 150 153 153 147 147 155 149
129 124 160 184 204 177 152 151 146 128 145 179 206 230 270 236 195 177 154 137 126 123 127 131 132 129 127 127 129 134 140 141 139 137 140 143 147 145 136 129 125 128 133 127
126 152 183 207 207 166 161 168 168 168 174 175 212 214 231 218 201 179 152 137 128 128 132 134 133 128 122 116 113 123 121 120 128 129 132 136 127 118 114 110 105 104 110 109
112 147 157 191 202 172 159 174 175 179 175 186 180 233 238 175 143 151 153 148 145 147 143 133 129 126 126 127 130 128 120 121 122 122 124 116 108 106 104 97 92 93 91 87
126 126 131 200 229 112 225 218 178 173 181 169 191 219 179 162 174 174 166 158 157 157 143 135 131 127 126 126 128 124 118 113 114 117 115 111 110 104 98 96 91 92 90 86
136 122 125 134 113 181 240 257 166 157 198 206 207 200 177 171 147 132 148 155 156 148 136 133 129 121 114 109 108 107 105 106 107 106 104 104 107 103 97 92 88 88 89 87
140 130 116 122 143 235 277 157 146 145 251 212 183 154 129 119 93 78 136 147 150 140 132 130 126 118 111 110 114 110 105 104 104 106 106 107 108 104 96 91 86 84 87 82
64 92 111 119 134 202 230 262 257 123 271 245 167 156 150 136 146 196 160 135 126 118 115 116 111 107 109 112 114 109 107 105 105 107 105 100 100 101 98 93 87 84 88 88
69 63 99 125 149 243 260 293 139 155 226 223 169 163 162 174 176 142 129 121 119 113 112 111 109 108 112 116 113 109 107 106 107 105 100 94 93 96 97 91 85 90 92 88
135 124 132 125 138 237 306 18 164 210 257 161 153 151 139 123 113 118 118 118 117 113 110 111 109 103 103 111 114 112 111 111 108 103 99 94 91 92 93 91 84 84 90 89
146 169 168 169 195 248 295 264 280 202 162 154 142 132 132 128 126 123 118 117 114 114 113 111 113 111 100 99 112 116 116 116 112 105 101 97 91 86 88 91 91 84 85 91
15 85 113 111 292 303 324 344 18 74 120 108 128 131 129 129 129 127 124 121 118 116 117 117 116 115 110 102 104 116 121 120 115 111 106 101 97 91 83 78 77 83 85 94
226 117 103 101 284 348 2 25 61 75 88 96 103 114 126 128 129 129 127 126 125 123 121 121 122 124 121 113 106 110 117 118 113 110 106 101 98 99 88 76 64 73 64 92
228 173 157 199 216 179 232 281 96 98 101 107 109 103 109 124 132 129 127 125 125 126 124 122 122 122 120 115 110 107 115 121 120 116 111 109 108 104 101 96 80 63 71 72
Height
1494 1501 1507 1505 1505 1506 1510 1515 1519 1516 1509 1512 1516 1516 1514 1515 1517 1518 1520 1523 1525 1526 1530 1533 1536 1538 1541 1543 1545 1547 1549 1552 1553 1555 1556 1558 1559 1560 1561 1562 1563 1564 1565 1566
1501 1504 1499 1500 1502 1505 1509 1515 1518 1515 1510 1513 1517 1517 1514 1514 1514 1515 1517 1520 1522 1525 1528 1530 1533 1536 1538 1540 1543 1546 1548 1550 1552 1554 1556 1557 1559 1560 1561 1562 1562 1563 1564 1565
1501 1500 1496 1499 1503 1508 1510 1514 1515 1517 1514 1514 1518 1523 1517 1513 1514 1515 1517 1518 1519 1521 1524 1527 1530 1532 1535 1538 1541 1544 1546 1549 1551 1553 1555 1556 1557 1558 1559 1560 1561 1562 1563 1564
1497 1495 1496 1499 1503 1505 1513 1506 1508 1512 1521 1529 1523 1538 1522 1515 1514 1513 1513 1514 1516 1518 1521 1524 1526 1529 1532 1535 1539 1542 1545 1547 1549 1551 1553 1554 1555 1556 1557 1559 1560 1561 1561 1562
1497 1494 1495 1499 1499 1500 1505 1502 1507 1512 1521 1531 1529 1536 1529 1517 1517 1510 1508 1509 1511 1513 1517 1519 1522 1526 1530 1534 1537 1540 1543 1545 1547 1549 1551 1552 1553 1554 1556 1557 1558 1559 1559 1560
1492 1490 1490 1492 1492 1495 1499 1507 1515 1523 1531 1543 1533 1537 1533 1521 1511 1504 1502 1503 1506 1509 1513 1516 1520 1523 1527 1531 1534 1538 1540 1542 1545 1546 1548 1549 1551 1552 1553 1554 1555 1556 1557 1557
1494 1490 1488 1488 1494 1497 1501 1520 1540 1543 1552 1548 1533 1534 1529 1507 1501 1498 1497 1499 1502 1505 1509 1512 1516 1519 1523 1527 1531 1535 1537 1539 1541 1543 1545 1547 1548 1550 1551 1551 1552 1553 1554 1554
1503 1504 1489 1486 1491 1499 1503 1513 1538 1549 1552 1547 1535 1535 1516 1499 1496 1495 1495 1496 1498 1502 1505 1508 1512 1516 1520 1524 1528 1531 1534 1536 1538 1540 1542 1544 1546 1547 1548 1549 1549 1550 1550 1550
1503 1501 1485 1482 1483 1490 1505 1512 1513 1533 1540 1544 1539 1527 1510 1496 1495 1493 1493 1494 1495 1498 1502 1505 1509 1513 1517 1521 1524 1528 1530 1533 1535 1537 1539 1541 1542 1544 1545 1546 1546 1546 1547 1547
1490 1497 1486 1482 1484 1489 1493 1504 1521 1533 1548 1549 1537 1530 1522 1502 1497 1494 1493 1493 1494 1497 1500 1504 1507 1511 1515 1519 1522 1526 1528 1530 1532 1534 1535 1538 1539 1541 1542 1542 1542 1543 1544 1544
1484 1495 1491 1485 1488 1494 1499 1506 1516 1529 1531 1546 1546 1533 1502 1498 1494 1494 1493 1493 1494 1497 1500 1503 1507 1511 1514 1518 1521 1523 1526 1528 1529 1531 1533 1535 1536 1537 1538 1539 1539 1541 1542 1542
1483 1495 1501 1492 1483 1481 1486 1497 1508 1522 1532 1535 1537 1527 1493 1492 1491 1491 1492 1493 1494 1496 1500 1503 1507 1511 1514 1516 1519 1521 1523 1525 1527 1529 1530 1532 1533 1535 1535 1536 1537 1538 1540 1540
1480 1494 1506 1502 1497 1488 1489 1494 1499 1510 1525 1535 1535 1520 1493 1491 1490 1490 1491 1493 1494 1497 1500 1504 1507 1510 1513 1515 1517 1520 1522 1523 1525 1527 1529 1530 1531 1532 1533 1534 1535 1536 1538 1538
1472 1490 1499 1505 1498 1490 1490 1493 1497 1504 1521 1527 1521 1508 1496 1492 1491 1491 1492 1493 1495 1498 1500 1504 1507 1510 1512 1514 1516 1519 1521 1523 1524 1526 1527 1529 1530 1531 1532 1533 1534 1535 1536 1536
1470 1485 1486 1485 1482 1482 1483 1487 1492 1495 1502 1510 1507 1503 1493 1489 1489 1490 1492 1494 1496 1499 1501 1504 1507 1509 1512 1515 1516 1519 1521 1523 1524 1526 1527 1528 1530 1531 1531 1532 1533 1534 1534 1534
1472 1481 1483 1483 1480 1480 1483 1483 1486 1489 1493 1495 1495 1496 1486 1486 1489 1491 1493 1494 1497 1500 1502 1505 1507 1510 1512 1515 1517 1519 1522 1523 1524 1525 1526 1528 1529 1530 1531 1532 1532 1532 1533 1534
1475 1481 1490 1493 1483 1481 1491 1484 1484 1486 1486 1488 1493 1488 1483 1485 1487 1489 1491 1494 1496 1499 1502 1505 1508 1510 1513 1515 1517 1519 1522 1523 1525 1526 1527 1528 1529 1530 1531 1531 1531 1532 1533 1533
1474 1482 1492 1495 1489 1500 1490 1477 1477 1480 1481 1481 1480 1479 1480 1482 1485 1489 1491 1494 1497 1500 1503 1505 1508 1511 1514 1516 1519 1520 1522 1524 1525 1526 1527 1529 1530 1530 1530 1531 1531 1532 1533 1534
1467 1477 1492 1500 1500 1494 1483 1477 1478 1480 1482 1478 1479 1479 1481 1483 1487 1491 1492 1494 1497 1500 1504 1507 1509 1512 1515 1517 1519 1521 1522 1524 1525 1526 1528 1529 1530 1530 1531 1531 1532 1533 1534 1535
1470 1473 1487 1497 1498 1501 1486 1475 1475 1478 1485 1477 1476 1478 1480 1483 1490 1490 1491 1494 1497 1501 1504 1507 1510 1513 1515 1518 1520 1522 1523 1524 1526 1527 1529 1530 1531 1531 1532 1533 1533 1534 1535 1536
1478 1483 1489 1494 1494 1490 1478 1474 1474 1488 1485 1475 1475 1476 1479 1480 1482 1486 1490 1494 1498 1501 1505 1508 1510 1513 1516 1518 1520 1522 1524 1525 1527 1528 1529 1531 1532 1532 1533 1534 1535 1535 1536 1537
1480 1485 1491 1494 1495 1492 1475 1473 1477 1477 1473 1473 1474 1476 1478 1480 1482 1485 1490 1494 1498 1501 1505 1508 1510 1513 1516 1519 1521 1523 1524 1526 1528 1529 1530 1531 1532 1533 1534 1535 1536 1537 1537 1537
1478 1479 1482 1484 1487 1478 1475 1474 1473 1473 1473 1473 1474 1476 1478 1481 1484 1487 1491 1495 1499 1502 1506 1509 1512 1515 1518 1520 1522 1523 1525 1527 1528 1530 1531 1532 1534 1535 1536 1536 1537 1537 1538 1538
1476 1476 1478 1480 1478 1475 1474 1473 1472 1472 1473 1474 1475 1477 1480 1482 1485 1489 1492 1496 1500 1503 1507 1510 1512 1515 1518 1521 1522 1524 1526 1528 1529 1530 1532 1534 1535 1536 1537 1538 1539 1539 1539 1540
1476 1476 1478 1479 1477 1475 1474 1473 1473 1473 1474 1476 1478 1480 1481 1484 1487 1490 1494 1498 1501 1505 1508 1511 1513 1515 1518 1521 1523 1525 1526 1528 1529 1531 1533 1534 1536 1537 1538 1539 1540 1541 1541 1542
1474 1475 1477 1478 1475 1475 1476 1475 1475 1475 1476 1478 1479 1482 1484 1487 1489 1493 1496 1500 1503 1506 1509 1512 1514 1517 1519 1521 1523 1525 1527 1529 1530 1532 1533 1536 1537 1538 1539 1540 1541 1543 1543 1544